HMU-SAT2

Last updated on Sun Jun 21 2026 00:02:11 GMT+0000 (Coordinated Universal Time)

1 67688U 98067YE 26170.71876334 .00061177 00000+0 64608-3 0 9998 2 67688 51.6279 280.2226 0005528 215.4972 144.5655 15.63592563 20613
UTC large
Height (km)
Speed (km/s)
/
Latitude / Longitude
Inclination (degrees)
Orbital Period (minutes)
Azimuth
Elevation
Range (km)
Doppler Factor

Next 0 passes for location: London (51.5072 / 0.1276)

No passes found over London.
HMU-SAT2